Terminal Aerodrome Forecast
Issued by NWS

Home | Current Version | Previous Version | Text Only | Print | Product List | Glossary On
Versions: 1 2 3 4 5 6 7 8 9 10 11 12 13 14 15 16 17 18 19 20 21 22 23 24 25 26 27 28 29 30 31 32 33 34 35 36 37 38 39 40 41 42 43 44 45 46 47 48 49 50
000
FTUS41 KRNK 202321
TAFBCB
TAF
KBCB 202321Z 2100/2124 VRB03KT P6SM SKC
     FM210830 00000KT 3SM BR SKC
     FM211400 29007KT P6SM SCT040 BKN120
     FM211900 28010KT P6SM VCSH BKN050=

USA.gov is the U.S. government's official web portal to all federal, state and local government web resources and services.